Location: Oberkirch
(48.5323°N, 8.0787°E)
Time: 08:29:28
(UTC+00:00)

Tiros 1 - Pass Details

Date: 19 February 2026
Orbit: 618 x 649 km, 48.4° (Epoch: 12 March)

Event Time Altitude Azimuth Distance (km) Brightness Sun altitude
Rises 07:02:17 0° 208° (SSW) 2,910 10.5 4.5°
Reaches altitude 10° 07:05:00 10° 193° (SSW) 1,999 9.8 4.9°
Maximum altitude 07:08:32 22° 143° (SE) 1,362 10.0 5.4°
Drops below altitude 10° 07:12:04 10° 92° (E) 1,993 11.2 6.0°
Sets 07:14:46 0° 77° (ENE) 2,898 11.4 6.4°
